[[{"header":{"parameterUnit":"m.s-1","parameterCategory":1,"la1":30.2991,"la2":30.254,"lo1":-89.0895,"lo2":-89.0444,"dy":0.0017,"dx":0.0017,"nx":28,"ny":28,"refTime":"2025-07-22T09:00:00:Z","depth":0,"parameterNumber":2,"parameterNumberName":"U-component_of_WINDS"},"data":[0,0,0,0,0,0,0,0,0,0,0,0,0,0,0,0,0,0,0,0,0,0,0,0,0,0,0,0,0,0,0,0,0,0,0,0,0,0,0,0,0,0,0,0,0,0,0,0,0,0,0,0,0,0,0,0,0,0,0.9954,0.9954,0,0.9968,0.9968,0.9968,0.9953,0.9952,0.9952,0.9951,0.9966,0.9967,0.9968,0,0,0,0,0,0,0,0,0,0,0,0,0,0.9914,0.9915,0.9954,0.9954,0.9954,0.9968,0.9968,0.9969,0.9953,0.9952,0.9952,0.9951,0.9966,0.9967,0.9968,0,0,0,0,0,0,0,0,0,0,0,0,0,0.993,0.9916,0.9953,0.9948,0.9948,0.9968,0.9968,0.9969,0.9953,0.9952,0.9952,0.9951,0.9966,0.9967,0.9968,0.9995,0,0,0.9973,0.9973,0,0,0,0,0,0,0,0,0.993,0.9932,0.9949,0.9948,0.9948,0.9958,0.996,0.9977,0.9954,0.9951,0.9951,0.995,0.9964,0.9966,0.997,0.9996,0.9996,0.9973,0.9974,0.9974,0.9975,0,0,0,0,0,0,0,0.9929,0.9931,0.9959,0.9949,0.9948,0.9945,0.9947,0.9963,0.9963,0.9951,0.995,0.9952,0.9964,0.9969,0.9971,0.9997,0.9973,0.9974,0.9975,0.9976,1.0048,1.0049,0,0,0,0,0,0,0.9928,0.993,0.9959,0.996,0.9936,0.9947,0.9948,0.9956,0.9962,0.9962,0.9953,0.9951,0.9967,0.9969,0.9971,1.0005,0.9974,0.9976,0.9977,1.0047,1.0048,1.005,0,0,0,0,0,0,0.9927,0.9931,0.9958,0.9945,0.9948,0.9948,0.9957,0.9956,0.9962,0.9963,0.9963,0.9958,0.9966,0.9969,0.999,1.0005,0.9976,0.9978,1.0046,1.0048,1.0049,1.0072,0,0,0,0,0,0,0.9926,0.993,0.994,0.9945,0.9949,0.9976,0.9958,0.9957,0.9964,0.9962,0.9968,0.9969,0.9966,0.9988,0.9992,1.0007,0.9979,1.0045,1.0047,1.0048,1.007,1.0074,1.0078,0,0,0,0,0,0.9925,0.9945,0.994,0.9944,0.9961,0.9977,0.9979,0.9976,0.9965,0.9976,0.9977,0.9968,1.0003,0.999,0.9994,1.001,1.0044,1.0046,1.0048,1.0068,1.0074,1.0078,0,0,0,0,0,0,0.9941,0.9946,0.994,0.9963,0.997,0.9975,0.9987,0.9981,0.9991,0.9989,0.9984,0.9986,1.0009,1.0011,0.9997,1.0038,1.0022,1.0025,1.0036,1.0041,1.0044,1.0044,0.998,0,0,0,0,0,0.9947,0.996,0.9963,0.9983,0.9987,0.9987,0.9994,0.9991,0.9997,1.0,1.0003,1.0011,1.0024,1.0032,1.0043,1.007,1.0073,1.0083,1.0087,1.0091,1.0094,1.0111,1.0117,1.0057,1.0057,1.0057,0,0,0.996,0.9964,0.9972,0.9987,0.9991,1.0006,0.9989,1.0004,1.0015,1.0002,1.0023,1.0026,1.0034,1.0059,1.007,1.0062,1.0111,1.0094,1.0096,1.0098,1.0114,1.012,1.0125,1.0059,1.0059,1.0059,0,0,0.9992,0.9995,1.0013,1.0019,1.0027,1.0027,1.0032,1.0038,1.004,1.006,1.0052,1.0065,1.0087,1.0094,1.01,1.0137,1.013,1.0141,1.0162,1.0179,1.0184,1.0188,1.0203,1.0209,1.0144,1.0144,1.0144,0,1.0007,1.0028,1.0023,1.004,1.0048,1.0038,1.0057,1.0063,1.0074,1.008,1.0071,1.01,1.0104,1.0132,1.0141,1.0146,1.0152,1.014,1.0183,1.0187,1.0191,1.0206,1.0212,1.0145,1.0145,1.0145,1.0145,0,1.0048,1.0062,1.0076,1.0089,1.0097,1.0115,1.0115,1.0124,1.0121,1.0123,1.0145,1.0151,1.0165,1.0171,1.0167,1.0199,1.0194,1.0184,1.0168,1.0198,1.0212,1.0218,1.0147,1.0147,1.0146,1.0146,0,0,1.0089,1.0101,1.0106,1.0113,1.0122,1.0134,1.0152,1.0166,1.0176,1.0184,1.0201,1.022,1.0212,1.022,1.0217,1.0231,1.0264,1.022,1.022,1.023,1.0302,1.0311,1.0317,1.0259,1.026,1.0261,1.0302,0,1.0123,1.0154,1.0152,1.0183,1.0198,1.019,1.0206,1.0214,1.0216,1.023,1.0233,1.0248,1.0234,1.0239,1.0253,1.0257,1.0278,1.0253,1.0276,1.0277,1.0276,1.0324,1.0333,1.0372,1.0307,1.0308,1.0309,0,1.0166,1.0177,1.021,1.0219,1.0226,1.024,1.0255,1.0267,1.0277,1.0278,1.0287,1.0283,1.0303,1.0286,1.0315,1.0298,1.0307,1.031,1.0312,1.0315,1.0296,1.0331,1.0383,1.039,1.0317,1.0316,1.0316,0,1.0196,1.0219,1.0242,1.0248,1.0259,1.027,1.0275,1.0284,1.0294,1.0307,1.0313,1.0328,1.0336,1.0348,1.0348,1.0335,1.0378,1.036,1.0381,1.0381,1.0391,1.0391,1.0449,1.0394,1.0394,1.0394,1.0394,0,1.0235,1.0255,1.0257,1.0271,1.0295,1.0292,1.0316,1.032,1.0329,1.0345,1.0338,1.0353,1.0352,1.0368,1.0368,1.0393,1.0396,1.0399,1.0399,1.0401,1.0401,1.0408,1.0406,1.0395,1.0395,1.0395,1.0395,0,1.0273,1.0274,1.0299,1.0308,1.0311,1.0328,1.0337,1.0351,1.0353,1.0374,1.0379,1.0383,1.0401,1.0403,1.0423,1.0424,1.0456,1.0451,1.0452,1.0452,1.0474,1.0473,1.054,1.0549,1.0487,1.0487,1.0488,0,1.0298,1.0314,1.0325,1.0336,1.0342,1.0359,1.0369,1.0368,1.0379,1.0393,1.0406,1.0425,1.0439,1.047,1.0475,1.0492,1.0489,1.0512,1.0492,1.0494,1.0493,1.0492,1.0495,1.0516,1.0517,1.0517,1.0518,0,1.0344,1.0344,1.0359,1.0375,1.0388,1.04,1.0412,1.0421,1.0422,1.0435,1.0454,1.0466,1.0488,1.0507,1.0524,1.053,1.0525,1.0524,1.053,1.0533,1.0533,1.0536,1.0465,1.0522,1.0522,1.0522,1.0521,1.0521,1.0378,1.0393,1.0404,1.0422,1.0431,1.0442,1.0457,1.0462,1.0478,1.0497,1.0495,1.0518,1.0529,1.0552,1.056,1.0578,1.057,1.0578,1.0581,1.0584,1.0587,1.0529,1.058,1.058,1.058,1.058,1.058,0,1.0426,1.0433,1.0449,1.0466,1.0481,1.0474,1.0487,1.05,1.052,1.0531,1.0547,1.057,1.0589,1.0597,1.0615,1.0629,1.0627,1.0634,1.0634,1.0636,1.0591,1.0585,1.0635,1.0635,1.0635,1.0635,1.0635,1.0635,1.0452,1.0478,1.048,1.0511,1.0518,1.054,1.0549,1.056,1.057,1.0597,1.0613,1.0618,1.0628,1.0648,1.0666,1.0668,1.0676,1.0685,1.0686,1.0644,1.0639,1.0633,1.0628,1.0686,1.0686,1.0729,1.0729,1.073]},{"header":{"parameterUnit":"m.s-1","parameterCategory":1,"la1":30.2991,"la2":30.254,"lo1":-89.0895,"lo2":-89.0444,"dy":0.0017,"dx":0.0017,"nx":28,"ny":28,"refTime":"2025-07-22T09:00:00:Z","depth":0,"parameterNumber":3,"parameterNumberName":"V-component_of_WINDS"},"data":[0,0,0,0,0,0,0,0,0,0,0,0,0,0,0,0,0,0,0,0,0,0,0,0,0,0,0,0,0,0,0,0,0,0,0,0,0,0,0,0,0,0,0,0,0,0,0,0,0,0,0,0,0,0,0,0,0,0,-1.7267,-1.7265,0,-1.7089,-1.7087,-1.7085,-1.7072,-1.7074,-1.7076,-1.7077,-1.6886,-1.688,-1.6873,0,0,0,0,0,0,0,0,0,0,0,0,0,-1.759,-1.7584,-1.7267,-1.7265,-1.7263,-1.7089,-1.7087,-1.7084,-1.7071,-1.7074,-1.7076,-1.7078,-1.6889,-1.6881,-1.6872,0,0,0,0,0,0,0,0,0,0,0,0,0,-1.7434,-1.7582,-1.7268,-1.7236,-1.7231,-1.709,-1.7087,-1.7084,-1.7071,-1.7074,-1.7077,-1.7079,-1.6891,-1.6881,-1.6871,-1.6747,0,0,-1.6839,-1.6835,0,0,0,0,0,0,0,0,-1.7443,-1.7422,-1.7242,-1.7237,-1.7232,-1.7106,-1.713,-1.697,-1.707,-1.7131,-1.7077,-1.7081,-1.6956,-1.6941,-1.6901,-1.6738,-1.673,-1.6838,-1.6832,-1.6828,-1.6825,0,0,0,0,0,0,0,-1.7454,-1.743,-1.7196,-1.724,-1.7233,-1.7228,-1.7209,-1.71,-1.7029,-1.7126,-1.7125,-1.7104,-1.6954,-1.6911,-1.6896,-1.6727,-1.6839,-1.6829,-1.6823,-1.6819,-1.6455,-1.6452,0,0,0,0,0,0,-1.7472,-1.7439,-1.7202,-1.7191,-1.7347,-1.722,-1.7199,-1.7143,-1.703,-1.7016,-1.7102,-1.7104,-1.6927,-1.6908,-1.6889,-1.6738,-1.6828,-1.6818,-1.6812,-1.6459,-1.6454,-1.6451,0,0,0,0,0,0,-1.7479,-1.7451,-1.7209,-1.7315,-1.7284,-1.7211,-1.7149,-1.7138,-1.7095,-1.7012,-1.6999,-1.7071,-1.6929,-1.6904,-1.6783,-1.6731,-1.6813,-1.6804,-1.6463,-1.6457,-1.6453,-1.6433,0,0,0,0,0,0,-1.7488,-1.7453,-1.7407,-1.7314,-1.7278,-1.7108,-1.7145,-1.7132,-1.7078,-1.7079,-1.698,-1.6966,-1.6929,-1.6799,-1.6773,-1.6718,-1.6796,-1.6467,-1.646,-1.6454,-1.6438,-1.6428,-1.6419,0,0,0,0,0,-1.75,-1.7406,-1.7405,-1.7376,-1.7219,-1.7105,-1.7084,-1.7047,-1.7074,-1.7025,-1.6973,-1.6969,-1.6741,-1.6787,-1.6757,-1.6698,-1.647,-1.6462,-1.6455,-1.6442,-1.643,-1.6419,0,0,0,0,0,0,-1.7491,-1.7393,-1.739,-1.7265,-1.7194,-1.7103,-1.7041,-1.7034,-1.6952,-1.6957,-1.6911,-1.6888,-1.6769,-1.6721,-1.6774,-1.6573,-1.6608,-1.6594,-1.6609,-1.6596,-1.6587,-1.6601,-1.6787,0,0,0,0,0,-1.7476,-1.7394,-1.7312,-1.7208,-1.7174,-1.7114,-1.7063,-1.704,-1.6964,-1.6933,-1.6871,-1.6795,-1.6706,-1.6649,-1.6562,-1.6431,-1.6409,-1.6376,-1.6367,-1.636,-1.6348,-1.6276,-1.626,-1.6425,-1.6426,-1.6426,0,0,-1.7441,-1.7377,-1.7328,-1.7205,-1.7148,-1.7063,-1.7088,-1.6997,-1.6933,-1.6918,-1.6802,-1.6754,-1.6666,-1.654,-1.6481,-1.6496,-1.6298,-1.635,-1.6345,-1.6336,-1.6266,-1.6251,-1.6237,-1.642,-1.6421,-1.6422,0,0,-1.7334,-1.7278,-1.7187,-1.713,-1.7044,-1.7005,-1.6983,-1.6894,-1.6863,-1.6746,-1.6734,-1.6656,-1.6504,-1.6442,-1.6391,-1.6264,-1.6257,-1.6237,-1.6187,-1.6118,-1.6105,-1.6093,-1.6048,-1.6032,-1.6225,-1.6225,-1.6225,0,-1.7301,-1.7175,-1.714,-1.7049,-1.6996,-1.6983,-1.6889,-1.6834,-1.6723,-1.6686,-1.6705,-1.6516,-1.6455,-1.6316,-1.6285,-1.6244,-1.6217,-1.6247,-1.611,-1.6098,-1.6086,-1.6043,-1.6026,-1.6223,-1.6224,-1.6224,-1.6224,0,-1.7138,-1.7051,-1.6987,-1.6885,-1.6824,-1.6732,-1.6682,-1.6624,-1.6607,-1.6566,-1.6447,-1.6375,-1.6275,-1.624,-1.622,-1.6097,-1.611,-1.612,-1.6154,-1.6069,-1.6028,-1.6011,-1.6221,-1.6221,-1.6222,-1.6222,0,0,-1.7019,-1.6901,-1.6878,-1.6833,-1.6738,-1.6668,-1.6576,-1.6481,-1.6433,-1.6357,-1.6278,-1.6151,-1.6161,-1.6103,-1.6077,-1.6016,-1.5921,-1.6033,-1.603,-1.6015,-1.5781,-1.5774,-1.5756,-1.5916,-1.5913,-1.591,-1.5789,0,-1.6902,-1.6741,-1.6708,-1.6567,-1.6486,-1.6474,-1.6393,-1.6325,-1.6285,-1.6208,-1.6162,-1.6074,-1.6093,-1.6058,-1.5998,-1.5945,-1.5873,-1.5954,-1.5841,-1.5837,-1.5864,-1.5734,-1.5725,-1.5614,-1.5772,-1.5769,-1.5767,0,-1.6744,-1.6669,-1.6521,-1.644,-1.6404,-1.6333,-1.6244,-1.6172,-1.6095,-1.6069,-1.6006,-1.5988,-1.589,-1.593,-1.5794,-1.5849,-1.5801,-1.5769,-1.5763,-1.5751,-1.5797,-1.5718,-1.5577,-1.5561,-1.5741,-1.5743,-1.5745,0,-1.6673,-1.6534,-1.6429,-1.6389,-1.6291,-1.6242,-1.6198,-1.6124,-1.607,-1.5991,-1.5956,-1.5866,-1.5816,-1.5746,-1.5703,-1.5736,-1.5571,-1.5607,-1.5546,-1.5547,-1.5511,-1.5514,-1.5361,-1.548,-1.548,-1.5481,-1.5481,0,-1.6546,-1.6456,-1.6396,-1.6331,-1.623,-1.6192,-1.6093,-1.6049,-1.5984,-1.5908,-1.589,-1.582,-1.5768,-1.5689,-1.5655,-1.5548,-1.5525,-1.5501,-1.5493,-1.5503,-1.5506,-1.547,-1.5477,-1.5476,-1.5477,-1.5478,-1.5479,0,-1.6449,-1.6405,-1.6289,-1.6208,-1.6185,-1.6114,-1.6042,-1.5978,-1.5939,-1.5844,-1.5819,-1.5756,-1.5663,-1.5614,-1.5496,-1.5473,-1.5353,-1.5349,-1.538,-1.5377,-1.5319,-1.5326,-1.5138,-1.5112,-1.5248,-1.5247,-1.5246,0,-1.6371,-1.6302,-1.6214,-1.6165,-1.6121,-1.604,-1.5986,-1.5946,-1.589,-1.5799,-1.5745,-1.5652,-1.5576,-1.5427,-1.5369,-1.528,-1.5273,-1.5214,-1.5259,-1.5272,-1.5273,-1.5278,-1.5271,-1.5206,-1.5204,-1.5203,-1.5203,0,-1.6237,-1.6219,-1.6144,-1.606,-1.5997,-1.5929,-1.5861,-1.5821,-1.577,-1.5707,-1.5614,-1.5555,-1.5438,-1.5345,-1.5252,-1.5204,-1.5194,-1.5189,-1.517,-1.5179,-1.5201,-1.5189,-1.5359,-1.5193,-1.5194,-1.5195,-1.5195,-1.5196,-1.6147,-1.6086,-1.6016,-1.5932,-1.5878,-1.5816,-1.5752,-1.5706,-1.5629,-1.5532,-1.5513,-1.5415,-1.534,-1.5214,-1.5164,-1.5085,-1.5097,-1.5069,-1.5062,-1.5056,-1.5054,-1.5214,-1.5068,-1.5068,-1.5068,-1.5068,-1.5068,0,-1.6012,-1.5967,-1.5891,-1.5799,-1.5733,-1.5734,-1.5659,-1.5603,-1.5518,-1.5451,-1.5377,-1.5271,-1.5182,-1.5118,-1.5027,-1.4976,-1.4969,-1.4953,-1.4957,-1.4946,-1.5049,-1.5074,-1.4961,-1.4961,-1.4961,-1.4961,-1.4961,-1.4961,-1.5935,-1.5832,-1.5807,-1.5677,-1.5632,-1.5538,-1.5496,-1.5438,-1.5385,-1.5268,-1.5195,-1.5156,-1.5089,-1.4994,-1.4912,-1.4895,-1.4863,-1.4847,-1.483,-1.4927,-1.4938,-1.4949,-1.4973,-1.484,-1.484,-1.4734,-1.4733,-1.4732]}]]